When you browse on this site, cookies collect data to enhance your experience and personalize the content and advertising you see.
Visit our Privacy Policy to learn more. By continuing to use the site, you agree to this use of cookies and data.
  • Em Portugal
  • Lista de países
  • Para 7 dias
  • Temperatura da água
  • Mapas de satélite
  • Mapa do tempo
  • Widgets de tempo
  • user-avatar
    Iniciar Sessão

    Previsão horária em Poswietne

    Hoje, 21 Março, Quinta-feira

    Tempo Temperatura Precipitação Vento Pressão Humidade
    00:00 +4°C° 0 mm 2 m/s 760 mmHg 65%
    01:00 +5°C° 0 mm 2 m/s 760 mmHg 64%
    02:00 +4°C° 0 mm 3 m/s 760 mmHg 65%
    03:00 +3°C° 0 mm 3 m/s 760 mmHg 66%
    04:00 +3°C° 0 mm 3 m/s 760 mmHg 68%
    05:00 +3°C° 0 mm 3 m/s 760 mmHg 68%
    06:00 +4°C° 0 mm 3 m/s 760 mmHg 69%
    07:00 +4°C° 0 mm 3 m/s 760 mmHg 70%
    08:00 +7°C° 0 mm 3 m/s 760 mmHg 69%
    09:00 +9°C° 0 mm 3 m/s 760 mmHg 67%
    10:00 +10°C° 0 mm 3 m/s 760 mmHg 66%
    11:00 +12°C° 0 mm 3 m/s 760 mmHg 64%
    12:00 +13°C° 0 mm 3 m/s 760 mmHg 61%
    13:00 +14°C° 0 mm 3 m/s 760 mmHg 59%
    14:00 +14°C° 0 mm 3 m/s 760 mmHg 59%
    15:00 +14°C° 0 mm 3 m/s 759 mmHg 59%
    16:00 +14°C° 0 mm 3 m/s 759 mmHg 60%
    17:00 +14°C° 0 mm 2 m/s 759 mmHg 67%
    18:00 +12°C° 0 mm 2 m/s 759 mmHg 74%
    19:00 +11°C° 0 mm 1 m/s 758 mmHg 81%
    20:00 +10°C° 0 mm 1 m/s 759 mmHg 83%
    21:00 +10°C° 0 mm 1 m/s 759 mmHg 86%
    22:00 +9°C° 0 mm 1 m/s 759 mmHg 88%
    23:00 +9°C° 0 mm 1 m/s 759 mmHg 89%

    Amanhã, 22 Março, Sexta-feira

    Tempo Temperatura Precipitação Vento Pressão Humidade
    00:00 +8°C° 0 mm 2 m/s 759 mmHg 90%
    01:00 +8°C° 0 mm 2 m/s 759 mmHg 91%
    02:00 +8°C° 0 mm 1 m/s 759 mmHg 91%
    03:00 +8°C° 0 mm 1 m/s 759 mmHg 92%
    04:00 +8°C° 0 mm 1 m/s 759 mmHg 92%
    05:00 +8°C° 0 mm 1 m/s 759 mmHg 92%
    06:00 +8°C° 0 mm 1 m/s 759 mmHg 91%
    07:00 +8°C° 0 mm 1 m/s 759 mmHg 91%
    08:00 +10°C° 0 mm 1 m/s 759 mmHg 83%
    09:00 +12°C° 0 mm 1 m/s 760 mmHg 76%
    10:00 +15°C° 0 mm 1 m/s 760 mmHg 68%
    11:00 +16°C° 0 mm 1 m/s 760 mmHg 64%
    12:00 +18°C° 0 mm 1 m/s 759 mmHg 59%
    13:00 +19°C° 0 mm 1 m/s 759 mmHg 55%
    14:00 +19°C° 0 mm 1 m/s 759 mmHg 54%
    15:00 +19°C° 0 mm 1 m/s 758 mmHg 53%
    16:00 +19°C° 0 mm 1 m/s 758 mmHg 53%
    17:00 +16°C° 0 mm 1 m/s 757 mmHg 59%
    18:00 +15°C° 0 mm 1 m/s 757 mmHg 66%
    19:00 +13°C° 0 mm 2 m/s 757 mmHg 73%
    20:00 +13°C° 0 mm 2 m/s 757 mmHg 77%
    21:00 +12°C° 0 mm 2 m/s 757 mmHg 81%
    22:00 +10°C° 0 mm 2 m/s 757 mmHg 85%
    23:00 +10°C° 0 mm 2 m/s 757 mmHg 85%

    Depois de amanhã, 23 Março, Sábado

    Tempo Temperatura Precipitação Vento Pressão Humidade
    00:00 +10°C° 0 mm 2 m/s 757 mmHg 86%
    01:00 +9°C° 0 mm 2 m/s 756 mmHg 87%
    02:00 +9°C° 0 mm 2 m/s 756 mmHg 87%
    03:00 +9°C° 0 mm 2 m/s 756 mmHg 87%
    04:00 +10°C° 0 mm 1 m/s 755 mmHg 88%
    05:00 +9°C° 0 mm 2 m/s 755 mmHg 86%
    06:00 +9°C° 0 mm 2 m/s 755 mmHg 85%
    07:00 +9°C° 0 mm 2 m/s 755 mmHg 84%
    08:00 +12°C° 0 mm 2 m/s 755 mmHg 75%
    09:00 +14°C° 0 mm 3 m/s 755 mmHg 66%
    10:00 +17°C° 0 mm 3 m/s 755 mmHg 58%
    11:00 +18°C° 0 mm 3 m/s 755 mmHg 54%
    12:00 +19°C° 0 mm 3 m/s 754 mmHg 50%
    13:00 +20°C° 0 mm 3 m/s 754 mmHg 46%
    14:00 +20°C° 0 mm 3 m/s 754 mmHg 47%
    15:00 +19°C° 0 mm 3 m/s 754 mmHg 48%
    16:00 +19°C° 0 mm 3 m/s 753 mmHg 48%
    17:00 +18°C° 0 mm 3 m/s 754 mmHg 57%
    18:00 +16°C° 0 mm 3 m/s 754 mmHg 66%
    19:00 +14°C° 0 mm 2 m/s 754 mmHg 74%
    20:00 +12°C° 0 mm 3 m/s 755 mmHg 78%
    21:00 +11°C° 0 mm 3 m/s 755 mmHg 82%
    22:00 +10°C° 0 mm 3 m/s 755 mmHg 86%
    23:00 +9°C° 0 mm 3 m/s 756 mmHg 80%

    24 Março, Domingo

    Tempo Temperatura Precipitação Vento Pressão Humidade
    00:00 +8°C° 0 mm 3 m/s 756 mmHg 74%
    01:00 +8°C° 0 mm 3 m/s 756 mmHg 68%
    02:00 +7°C° 0 mm 3 m/s 756 mmHg 64%
    03:00 +7°C° 0 mm 3 m/s 756 mmHg 60%
    04:00 +6°C° 0 mm 2 m/s 756 mmHg 56%
    05:00 +6°C° 0 mm 2 m/s 756 mmHg 57%
    06:00 +5°C° 0 mm 3 m/s 756 mmHg 59%
    07:00 +4°C° 0 mm 3 m/s 757 mmHg 60%
    08:00 +5°C° 0 mm 3 m/s 757 mmHg 55%
    09:00 +7°C° 0 mm 2 m/s 757 mmHg 49%
    10:00 +8°C° 0 mm 2 m/s 757 mmHg 43%
    11:00 +9°C° 0 mm 2 m/s 756 mmHg 40%
    12:00 +10°C° 0 mm 2 m/s 756 mmHg 37%
    13:00 +12°C° 0 mm 2 m/s 756 mmHg 34%
    14:00 +12°C° 0 mm 2 m/s 755 mmHg 35%
    15:00 +12°C° 0 mm 2 m/s 755 mmHg 35%
    16:00 +12°C° 0 mm 2 m/s 755 mmHg 35%
    17:00 +9°C° 0 mm 2 m/s 755 mmHg 41%
    18:00 +8°C° 0 mm 2 m/s 755 mmHg 48%
    19:00 +6°C° 0 mm 2 m/s 755 mmHg 54%
    20:00 +5°C° 0 mm 2 m/s 755 mmHg 56%
    21:00 +6°C° 0 mm 1 m/s 755 mmHg 59%
    22:00 +5°C° 0 mm 1 m/s 755 mmHg 62%
    23:00 +5°C° 0 mm 1 m/s 755 mmHg 63%

    25 Março, Segunda-feira

    Tempo Temperatura Precipitação Vento Pressão Humidade
    00:00 +4°C° 0 mm 1 m/s 755 mmHg 65%
    01:00 +4°C° 0 mm 1 m/s 755 mmHg 67%
    02:00 +3°C° 0 mm 2 m/s 755 mmHg 66%
    03:00 +4°C° 0 mm 2 m/s 755 mmHg 66%
    04:00 +3°C° 0 mm 3 m/s 755 mmHg 65%
    05:00 +3°C° 0 mm 3 m/s 755 mmHg 68%
    06:00 +1°C° 0 mm 4 m/s 754 mmHg 71%
    07:00 +1°C° 0 mm 4 m/s 754 mmHg 74%
    08:00 +2°C° 0 mm 5 m/s 754 mmHg 69%
    09:00 +3°C° 0 mm 6 m/s 754 mmHg 65%
    10:00 +5°C° 0 mm 6 m/s 754 mmHg 61%
    11:00 +5°C° 0.1 mm 6 m/s 753 mmHg 61%
    12:00 +5°C° 0.1 mm 6 m/s 753 mmHg 62%
    13:00 +5°C° 0.1 mm 6 m/s 753 mmHg 62%
    14:00 +5°C° 0.1 mm 7 m/s 752 mmHg 62%
    15:00 +5°C° 0.1 mm 7 m/s 752 mmHg 62%
    16:00 +6°C° 0.1 mm 7 m/s 751 mmHg 62%
    17:00 +5°C° 0.2 mm 7 m/s 751 mmHg 64%
    18:00 +4°C° 0.2 mm 7 m/s 751 mmHg 67%
    19:00 +4°C° 0.2 mm 7 m/s 751 mmHg 69%
    20:00 +3°C° 0.2 mm 7 m/s 751 mmHg 72%
    21:00 +3°C° 0.2 mm 6 m/s 751 mmHg 75%
    22:00 +3°C° 0.2 mm 6 m/s 751 mmHg 78%
    23:00 +3°C° 0.3 mm 6 m/s 751 mmHg 78%

    26 Março, Terça-feira

    Tempo Temperatura Precipitação Vento Pressão Humidade
    00:00 +2°C° 0.3 mm 6 m/s 751 mmHg 77%
    01:00 +2°C° 0.3 mm 5 m/s 751 mmHg 76%
    02:00 +1°C° 0 mm 5 m/s 750 mmHg 78%
    03:00 +1°C° 0 mm 5 m/s 750 mmHg 79%
    04:00 0°C° 0 mm 4 m/s 750 mmHg 81%
    05:00 0°C° 0 mm 5 m/s 750 mmHg 79%
    06:00 0°C° 0 mm 5 m/s 750 mmHg 78%
    07:00 0°C° 0 mm 5 m/s 751 mmHg 76%
    08:00 +1°C° 0 mm 6 m/s 751 mmHg 69%
    09:00 +2°C° 0 mm 6 m/s 752 mmHg 61%
    10:00 +3°C° 0 mm 7 m/s 752 mmHg 53%
    11:00 +4°C° 0 mm 7 m/s 752 mmHg 47%
    12:00 +5°C° 0 mm 7 m/s 752 mmHg 41%
    13:00 +6°C° 0 mm 7 m/s 752 mmHg 35%
    14:00 +7°C° 0 mm 6 m/s 753 mmHg 38%
    15:00 +5°C° 0 mm 6 m/s 753 mmHg 41%
    16:00 +5°C° 0 mm 6 m/s 753 mmHg 43%
    17:00 +5°C° 0 mm 5 m/s 753 mmHg 47%
    18:00 +4°C° 0 mm 4 m/s 754 mmHg 51%
    19:00 +3°C° 0 mm 3 m/s 754 mmHg 55%
    20:00 +2°C° 0 mm 3 m/s 755 mmHg 59%
    21:00 +2°C° 0 mm 2 m/s 755 mmHg 64%
    22:00 +1°C° 0 mm 2 m/s 756 mmHg 68%
    23:00 +1°C° 0 mm 2 m/s 756 mmHg 70%
    Mostrar mais